TimeEDT,TemperatureF,Dew PointF,Humidity,Sea Level PressureIn,VisibilityMPH,Wind Direction,Wind SpeedMPH,Gust SpeedMPH,PrecipitationIn,Events,Conditions,WindDirDegrees,DateUTC
12:53 AM,72.0,55.9,57,30.14,10.0,East,5.8,-,N/A,,Mostly Cloudy,90,2014-03-15 04:53:00
1:53 AM,72.0,57.9,61,30.12,10.0,East,5.8,-,N/A,,Clear,100,2014-03-15 05:53:00
2:53 AM,71.1,57.0,61,30.10,10.0,East,3.5,-,N/A,,Clear,90,2014-03-15 06:53:00
3:53 AM,71.1,57.9,63,30.08,10.0,East,4.6,-,N/A,,Clear,80,2014-03-15 07:53:00
4:53 AM,69.1,59.0,70,30.08,10.0,NE,4.6,-,N/A,,Clear,50,2014-03-15 08:53:00
5:53 AM,72.0,60.1,66,30.07,10.0,East,6.9,-,N/A,,Mostly Cloudy,100,2014-03-15 09:53:00
6:53 AM,72.0,60.1,66,30.07,10.0,East,6.9,-,N/A,,Scattered Clouds,90,2014-03-15 10:53:00
7:53 AM,73.0,59.0,61,30.08,10.0,East,10.4,-,N/A,,Clear,80,2014-03-15 11:53:00
8:53 AM,73.9,60.1,62,30.09,10.0,East,8.1,-,N/A,,Clear,100,2014-03-15 12:53:00
9:53 AM,75.9,60.1,58,30.12,10.0,East,12.7,-,N/A,,Scattered Clouds,80,2014-03-15 13:53:00
10:53 AM,78.1,61.0,56,30.12,10.0,East,9.2,18.4,N/A,,Clear,100,2014-03-15 14:53:00
11:53 AM,79.0,61.0,54,30.13,10.0,East,12.7,18.4,N/A,,Clear,90,2014-03-15 15:53:00
12:53 PM,80.1,61.0,52,30.12,10.0,East,9.2,-,N/A,,Clear,80,2014-03-15 16:53:00
1:53 PM,81.0,61.0,50,30.09,10.0,ESE,9.2,17.3,N/A,,Clear,110,2014-03-15 17:53:00
2:53 PM,80.1,60.1,50,30.06,10.0,East,10.4,19.6,N/A,,Clear,90,2014-03-15 18:53:00
3:53 PM,79.0,59.0,50,30.05,10.0,East,10.4,17.3,N/A,,Clear,80,2014-03-15 19:53:00
4:53 PM,79.0,57.9,48,30.04,10.0,East,11.5,-,N/A,,Clear,90,2014-03-15 20:53:00
5:53 PM,78.1,57.9,50,30.04,10.0,East,9.2,16.1,N/A,,Clear,100,2014-03-15 21:53:00
6:53 PM,75.9,61.0,60,30.04,10.0,East,6.9,16.1,N/A,,Clear,90,2014-03-15 22:53:00
7:53 PM,73.9,61.0,64,30.05,10.0,East,8.1,-,N/A,,Clear,80,2014-03-15 23:53:00
8:53 PM,73.9,59.0,59,30.04,10.0,East,6.9,-,N/A,,Clear,100,2014-03-16 00:53:00
9:53 PM,73.9,59.0,59,30.04,10.0,ESE,8.1,-,N/A,,Clear,110,2014-03-16 01:53:00
10:53 PM,75.0,59.0,57,30.04,10.0,ESE,9.2,-,N/A,,Clear,120,2014-03-16 02:53:00
11:53 PM,73.9,60.1,62,30.04,10.0,East,6.9,16.1,N/A,,Clear,90,2014-03-16 03:53:00